Location: Newark
(47.8285°N, 0.6972°W)
Time: 00:45:34
(UTC+00:00)

OTV 5 (USA 277) - Visible Passes

Search period start: 21 October 2019 00:00
Search period end: 31 October 2019 00:00
Orbit: 310 x 324 km, 54.5° (Epoch: 17 October)

Date Brightness Start Highest point End Pass type
(mag) Time Alt. Az. Time Alt. Az. Time Alt. Az.
28 Oct ? 18:37:55 10° SSW 18:38:41 15° S 18:38:41 15° S visible
29 Oct ? 18:51:58 10° SW 18:53:10 23° SW 18:53:10 23° SW visible
30 Oct ? 17:33:20 10° S 17:35:10 16° SE 17:36:39 12° E visible
30 Oct ? 19:06:30 10° WSW 19:07:33 20° WSW 19:07:33 20° WSW visible
